TimeCST,TemperatureF,Dew PointF,Humidity,Sea Level PressureIn,VisibilityMPH,Wind Direction,Wind SpeedMPH,Gust SpeedMPH,PrecipitationIn,Events,Conditions,WindDirDegrees,DateUTC
12:15 AM,37.4,30.2,75,29.90,10.0,ESE,9.2,-,N/A,,Clear,110,2013-02-25 06:15:00
12:35 AM,37.4,30.2,75,29.90,10.0,ESE,8.1,-,N/A,,Clear,110,2013-02-25 06:35:00
12:55 AM,37.4,30.2,75,29.90,10.0,ESE,8.1,-,N/A,,Clear,110,2013-02-25 06:55:00
1:15 AM,35.6,30.2,81,29.90,10.0,ESE,8.1,-,N/A,,Clear,120,2013-02-25 07:15:00
1:55 AM,33.8,28.4,81,29.91,10.0,Calm,Calm,-,N/A,,Clear,0,2013-02-25 07:55:00
2:15 AM,32.0,28.4,87,29.91,10.0,East,3.5,-,N/A,,Clear,90,2013-02-25 08:15:00
2:35 AM,33.8,30.2,87,29.91,10.0,East,8.1,-,N/A,,Clear,90,2013-02-25 08:35:00
2:55 AM,35.6,28.4,75,29.90,10.0,East,9.2,-,N/A,,Clear,100,2013-02-25 08:55:00
3:15 AM,35.6,28.4,75,29.88,10.0,East,9.2,-,N/A,,Clear,100,2013-02-25 09:15:00
3:35 AM,35.6,28.4,75,29.86,10.0,East,10.4,-,N/A,,Clear,100,2013-02-25 09:35:00
3:55 AM,35.6,26.6,70,29.86,10.0,East,9.2,-,N/A,,Clear,100,2013-02-25 09:55:00
4:15 AM,35.6,26.6,70,29.86,10.0,ESE,6.9,-,N/A,,Clear,110,2013-02-25 10:15:00
4:35 AM,33.8,26.6,75,29.86,10.0,East,8.1,-,N/A,,Clear,100,2013-02-25 10:35:00
4:55 AM,33.8,26.6,75,29.85,10.0,East,9.2,-,N/A,,Clear,90,2013-02-25 10:55:00
5:15 AM,33.8,26.6,75,29.84,10.0,East,10.4,-,N/A,,Clear,100,2013-02-25 11:15:00
6:52 AM,33.8,26.6,75,29.83,10.0,ESE,11.5,-,N/A,,Mostly Cloudy,110,2013-02-25 12:52:00
7:51 AM,35.6,26.6,70,29.83,10.0,ESE,15.0,-,N/A,,Mostly Cloudy,110,2013-02-25 13:51:00
8:50 AM,37.4,26.6,65,29.80,10.0,East,13.8,19.6,N/A,,Overcast,90,2013-02-25 14:50:00
9:53 AM,39.2,26.6,61,29.78,10.0,East,17.3,-,N/A,,Overcast,80,2013-02-25 15:53:00
10:50 AM,42.8,26.6,53,29.76,10.0,ESE,18.4,25.3,N/A,,Overcast,110,2013-02-25 16:50:00
11:48 AM,44.6,26.6,49,29.69,10.0,East,20.7,29.9,N/A,,Overcast,100,2013-02-25 17:48:00
12:52 PM,46.4,28.4,50,29.64,10.0,East,18.4,29.9,N/A,,Overcast,90,2013-02-25 18:52:00
1:50 PM,48.2,28.4,46,29.60,10.0,East,17.3,27.6,N/A,,Overcast,100,2013-02-25 19:50:00
2:53 PM,46.4,32.0,57,29.55,10.0,North,9.2,-,N/A,Rain-Thunderstorm,Light Thunderstorms and Rain,360,2013-02-25 20:53:00
3:46 PM,37.4,35.6,93,29.56,1.0,NNE,17.3,26.5,N/A,Rain-Thunderstorm,Thunderstorms and Rain,30,2013-02-25 21:46:00
4:06 PM,39.2,35.6,87,29.56,10.0,NE,11.5,17.3,N/A,,Overcast,40,2013-02-25 22:06:00
4:45 PM,39.2,35.6,87,29.53,10.0,NE,13.8,20.7,N/A,,Overcast,50,2013-02-25 22:45:00
5:45 PM,39.2,35.6,87,29.54,7.0,ENE,9.2,21.9,N/A,Rain,Light Rain,70,2013-02-25 23:45:00
6:50 PM,37.4,37.4,100,29.58,3.0,ENE,5.8,-,N/A,Rain,Light Rain,60,2013-02-26 00:50:00
7:55 PM,37.4,35.6,93,29.52,4.0,NE,12.7,19.6,N/A,Rain,Light Rain,50,2013-02-26 01:55:00
8:15 PM,37.4,35.6,93,29.48,3.0,ENE,15.0,25.3,N/A,Rain,Light Rain,60,2013-02-26 02:15:00
8:35 PM,35.6,35.6,100,29.47,4.0,NE,16.1,25.3,N/A,Rain,Light Rain,50,2013-02-26 02:35:00
8:45 PM,37.4,35.6,93,29.47,4.0,NE,11.5,25.3,N/A,Rain,Light Rain,50,2013-02-26 02:45:00
8:55 PM,35.6,35.6,100,29.45,6.0,NE,12.7,20.7,0.01,,Overcast,50,2013-02-26 02:55:00
9:15 PM,35.6,35.6,100,29.44,7.0,ENE,12.7,18.4,N/A,,Overcast,60,2013-02-26 03:15:00
9:55 PM,37.4,35.6,93,29.44,9.0,ENE,9.2,18.4,N/A,,Overcast,70,2013-02-26 03:55:00
10:15 PM,37.4,35.6,93,29.43,9.0,ENE,9.2,-,N/A,,Overcast,60,2013-02-26 04:15:00
10:35 PM,37.4,35.6,93,29.42,3.0,NE,5.8,-,0.01,Rain,Light Rain,50,2013-02-26 04:35:00
10:55 PM,37.4,35.6,93,29.41,3.0,ENE,10.4,-,0.02,Rain,Light Rain,60,2013-02-26 04:55:00
11:15 PM,35.6,35.6,100,29.41,5.0,North,3.5,-,N/A,Rain,Light Rain,10,2013-02-26 05:15:00
11:35 PM,35.6,35.6,100,29.42,2.0,Calm,Calm,-,N/A,Rain,Light Rain,0,2013-02-26 05:35:00
11:55 PM,35.6,35.6,100,29.41,1.8,NNW,4.6,-,0.04,Rain,Rain,330,2013-02-26 05:55:00